Location: Newark
(49.8667°N, 1.1500°E)
Time: 04:31:33
(UTC+00:00)

ISS - Visible Passes

Search period start: 25 January 2020 00:00
Search period end: 04 February 2020 00:00
Orbit: 415 x 423 km, 51.6° (Epoch: 25 January)

Date Brightness Start Highest point End Pass type
(mag) Time Alt. Az. Time Alt. Az. Time Alt. Az.
25 Jan -3.7 18:13:02 10° WSW 18:16:25 67° SSE 18:17:29 39° E visible
25 Jan -0.5 19:49:55 10° W 19:50:27 14° W 19:50:27 14° W visible
26 Jan -3.2 17:25:39 10° SW 17:28:57 48° SSE 17:31:56 12° ENE visible
26 Jan -2.7 19:02:20 10° W 19:04:54 46° WNW 19:04:54 46° WNW visible
27 Jan -3.8 18:14:45 10° W 18:18:09 77° NNW 18:19:20 37° ENE visible
27 Jan -0.5 19:51:46 10° WNW 19:52:18 14° WNW 19:52:18 14° WNW visible
28 Jan -3.7 17:27:12 10° WSW 17:30:36 86° SSE 17:33:44 12° ENE visible
28 Jan -2.7 19:04:10 10° W 19:06:42 44° WNW 19:06:42 44° WNW visible
29 Jan -3.6 18:16:33 10° W 18:19:56 62° N 18:21:06 36° ENE visible
29 Jan -0.5 19:53:29 10° WNW 19:54:03 14° WNW 19:54:03 14° WNW visible
30 Jan -3.6 17:28:56 10° W 17:32:19 67° N 17:35:30 11° ENE visible
30 Jan -2.8 19:05:54 10° WNW 19:08:28 47° WNW 19:08:28 47° WNW visible
31 Jan -3.7 18:18:18 10° WNW 18:21:41 66° N 18:22:53 36° ENE visible
31 Jan -0.6 19:55:11 10° WNW 19:55:50 15° W 19:55:50 15° W visible
01 Feb -3.6 17:30:40 10° W 17:34:03 62° N 17:37:20 11° E visible
01 Feb -3.0 19:07:34 10° WNW 19:10:18 52° W 19:10:18 52° W visible
02 Feb -3.8 18:19:57 10° WNW 18:23:21 90° NNW 18:24:48 32° ESE visible
02 Feb -0.6 19:57:02 10° W 19:57:46 14° W 19:57:46 14° W visible
03 Feb -3.7 17:32:20 10° WNW 17:35:44 75° NNE 17:39:06 10° E visible
03 Feb -2.5 19:09:15 10° W 19:12:21 36° SSW 19:12:21 36° SSW visible
